| time (UTC) | temp F | wind direction | speed MPH | gust MPH | rain 1hr in | rain 24hr in | rain mn in | humidity % | barometer mb |
| 20260507040013 | 53 | 344 | 0.0 | 0.0 | 0.00 | 0.00 | 0.00 | 73 | 1009.7 |
| 20260507034511 | 53 | 345 | 0.0 | 0.0 | 0.00 | 0.00 | 0.00 | 73 | 1009.8 |
| 20260507033010 | 53 | 347 | 0.0 | 0.0 | 0.00 | 0.00 | 0.00 | 74 | 1009.9 |
| 20260507031507 | 53 | 332 | 0.0 | 0.0 | 0.00 | 0.00 | 0.00 | 74 | 1010.0 |
| 20260507030007 | 54 | 326 | 0.0 | 0.0 | 0.00 | 0.00 | 0.00 | 74 | 1010.1 |
| 20260507024503 | 54 | 332 | 0.0 | 0.0 | 0.00 | 0.00 | 0.00 | 71 | 1010.1 |
| 20260507023002 | 54 | 334 | 0.0 | 0.0 | 0.00 | 0.00 | 0.00 | 72 | 1010.1 |
| 20260507021501 | 54 | 338 | 0.0 | 0.0 | 0.00 | 0.00 | 0.00 | 73 | 1010.0 |
| 20260507014556 | 55 | 322 | 0.0 | 0.0 | 0.00 | 0.00 | 0.00 | 74 | 1010.2 |
| 20260507013111 | 56 | 347 | 0.0 | 0.0 | 0.00 | 0.00 | 0.00 | 71 | 1010.1 |
| 20260507011553 | 56 | 20 | 0.0 | 0.0 | 0.00 | 0.00 | 0.00 | 72 | 1010.1 |
| 20260507010053 | 56 | 19 | 0.0 | 0.0 | 0.00 | 0.00 | 0.00 | 73 | 1010.2 |
| 20260507004548 | 57 | 39 | 0.0 | 0.0 | 0.00 | 0.00 | 0.00 | 73 | 1010.3 |
| 20260507003045 | 56 | 15 | 0.0 | 0.0 | 0.00 | 0.00 | 0.00 | 74 | 1010.5 |
| 20260507001605 | 56 | 37 | 0.0 | 0.0 | 0.00 | 0.00 | 0.00 | 75 | 1010.6 |
| 20260507000042 | 57 | 1 | 0.0 | 0.0 | 0.00 | 0.00 | 0.00 | 75 | 1010.7 |
| 20260506234549 | 57 | 16 | 0.0 | 0.0 | 0.00 | 0.00 | 0.00 | 76 | 1010.8 |
| 20260506233039 | 57 | 9 | 0.0 | 0.0 | 0.00 | 0.00 | 0.00 | 75 | 1010.8 |
| 20260506231537 | 58 | 23 | 0.0 | 0.0 | 0.00 | 0.00 | 0.00 | 77 | 1010.9 |
| 20260506230035 | 58 | 13 | 0.0 | 0.0 | 0.00 | 0.00 | 0.00 | 76 | 1010.9 |
| 20260506224532 | 59 | 31 | 0.0 | 0.0 | 0.00 | 0.00 | 0.00 | 77 | 1010.9 |
| 20260506223032 | 59 | 31 | 0.0 | 0.0 | 0.00 | 0.00 | 0.00 | 77 | 1011.1 |
| 20260506221528 | 59 | 18 | 0.0 | 0.0 | 0.00 | 0.00 | 0.00 | 77 | 1011.0 |
| 20260506220034 | 59 | 19 | 0.0 | 0.0 | 0.00 | 0.00 | 0.00 | 77 | 1011.0 |
| 20260506214527 | 60 | 100 | 0.0 | 0.0 | 0.00 | 0.00 | 0.00 | 75 | 1011.0 |
| 20260506213024 | 60 | 114 | 0.0 | 0.0 | 0.00 | 0.00 | 0.00 | 74 | 1010.9 |
| 20260506211523 | 61 | 114 | 0.0 | 0.0 | 0.00 | 0.00 | 0.00 | 73 | 1010.9 |
| 20260506210022 | 62 | 114 | 0.0 | 0.0 | 0.00 | 0.00 | 0.00 | 72 | 1010.7 |
| 20260506204519 | 62 | 114 | 0.0 | 0.0 | 0.00 | 0.00 | 0.00 | 71 | 1010.6 |
| 20260506203018 | 63 | 114 | 0.0 | 0.0 | 0.00 | 0.00 | 0.00 | 71 | 1010.4 |
| 20260506201517 | 63 | 114 | 0.0 | 0.0 | 0.00 | 0.00 | 0.00 | 71 | 1010.4 |
| 20260506200017 | 63 | 114 | 0.0 | 0.0 | 0.00 | 0.00 | 0.00 | 70 | 1010.3 |
| 20260506194526 | 63 | 114 | 0.0 | 0.0 | 0.00 | 0.00 | 0.00 | 69 | 1010.0 |
| 20260506193015 | 64 | 116 | 0.0 | 0.0 | 0.00 | 0.00 | 0.00 | 69 | 1009.8 |
| 20260506191515 | 64 | 144 | 0.0 | 0.0 | 0.00 | 0.00 | 0.00 | 67 | 1009.9 |
| 20260506190014 | 64 | 149 | 0.0 | 0.0 | 0.00 | 0.00 | 0.00 | 66 | 1009.8 |
| 20260506184513 | 65 | 170 | 0.0 | 0.0 | 0.00 | 0.00 | 0.00 | 66 | 1009.6 |
| 20260506183012 | 65 | 162 | 0.0 | 3.0 | 0.00 | 0.00 | 0.00 | 66 | 1009.4 |
| 20260506181512 | 65 | 109 | 0.0 | 1.0 | 0.00 | 0.00 | 0.00 | 66 | 1009.2 |
| 20260506180012 | 65 | 129 | 0.0 | 0.0 | 0.00 | 0.00 | 0.00 | 65 | 1009.0 |
| 20260506174511 | 65 | 162 | 0.0 | 3.0 | 0.00 | 0.00 | 0.00 | 64 | 1009.1 |
| 20260506173011 | 66 | 135 | 0.0 | 1.0 | 0.00 | 0.00 | 0.00 | 63 | 1009.0 |
| 20260506171508 | 66 | 132 | 0.0 | 1.0 | 0.00 | 0.00 | 0.00 | 64 | 1009.2 |
| 20260506170007 | 67 | 156 | 0.0 | 4.0 | 0.00 | 0.00 | 0.00 | 63 | 1009.3 |
| 20260506164512 | 67 | 110 | 0.0 | 4.0 | 0.00 | 0.00 | 0.00 | 62 | 1009.4 |
| 20260506163006 | 67 | 167 | 0.0 | 5.0 | 0.00 | 0.00 | 0.00 | 61 | 1009.5 |
| 20260506161505 | 67 | 152 | 0.0 | 7.0 | 0.00 | 0.00 | 0.00 | 61 | 1009.3 |
| 20260506160004 | 67 | 124 | 0.0 | 5.0 | 0.00 | 0.00 | 0.00 | 62 | 1009.3 |
| 20260506154510 | 66 | 122 | 0.0 | 5.0 | 0.00 | 0.00 | 0.00 | 63 | 1009.3 |
| 20260506153001 | 66 | 141 | 0.0 | 8.0 | 0.00 | 0.00 | 0.00 | 65 | 1009.2 |
| 20260506151601 | 66 | 141 | 0.0 | 7.0 | 0.00 | 0.00 | 0.00 | 62 | 1009.3 |
| 20260506150105 | 66 | 121 | 0.0 | 6.0 | 0.00 | 0.00 | 0.00 | 63 | 1009.5 |
| 20260506144600 | 66 | 139 | 0.0 | 4.0 | 0.00 | 0.00 | 0.00 | 62 | 1009.6 |
| 20260506143058 | 66 | 131 | 0.0 | 3.0 | 0.00 | 0.00 | 0.00 | 65 | 1009.5 |
| 20260506141557 | 66 | 114 | 0.0 | 2.0 | 0.00 | 0.00 | 0.00 | 64 | 1009.8 |
| 20260506140057 | 66 | 139 | 1.0 | 12.0 | 0.00 | 0.00 | 0.00 | 64 | 1009.8 |
| 20260506134555 | 66 | 129 | 0.0 | 4.0 | 0.00 | 0.00 | 0.00 | 64 | 1009.9 |
| 20260506133104 | 67 | 162 | 0.0 | 6.0 | 0.00 | 0.00 | 0.00 | 63 | 1009.8 |
| 20260506131602 | 68 | 165 | 0.0 | 8.0 | 0.00 | 0.00 | 0.00 | 63 | 1009.9 |
| 20260506130056 | 68 | 191 | 0.0 | 12.0 | 0.00 | 0.00 | 0.00 | 63 | 1010.0 |
| 20260506124558 | 68 | 152 | 0.0 | 8.0 | 0.00 | 0.00 | 0.00 | 59 | 1010.0 |
| 20260506123052 | 67 | 188 | 0.0 | 12.0 | 0.00 | 0.00 | 0.00 | 59 | 1010.0 |
| 20260506121551 | 68 | 134 | 0.0 | 15.0 | 0.00 | 0.00 | 0.00 | 60 | 1010.0 |
| 20260506120051 | 68 | 149 | 0.0 | 13.0 | 0.00 | 0.00 | 0.00 | 61 | 1010.1 |
| 20260506114550 | 68 | 245 | 1.0 | 13.0 | 0.00 | 0.00 | 0.00 | 60 | 1010.2 |
| 20260506113151 | 69 | 226 | 1.0 | 0.0 | 0.00 | 0.00 | 0.00 | 57 | 1010.2 |
| 20260506111548 | 69 | 187 | 2.0 | 13.0 | 0.00 | 0.00 | 0.00 | 56 | 1010.1 |
| 20260506110048 | 69 | 113 | 0.0 | 12.0 | 0.00 | 0.00 | 0.00 | 56 | 1010.1 |
| 20260506104549 | 68 | 200 | 0.0 | 14.0 | 0.00 | 0.00 | 0.00 | 55 | 1010.2 |
| 20260506103045 | 69 | 240 | 1.0 | 7.0 | 0.00 | 0.00 | 0.00 | 56 | 1010.3 |
| 20260506101544 | 68 | 155 | 3.0 | 10.0 | 0.00 | 0.00 | 0.00 | 58 | 1010.3 |
| 20260506100044 | 68 | 213 | 0.0 | 2.0 | 0.00 | 0.00 | 0.00 | 58 | 1010.4 |
| 20260506094551 | 68 | 165 | 2.0 | 10.0 | 0.00 | 0.00 | 0.00 | 60 | 1010.3 |
| 20260506093041 | 69 | 186 | 0.0 | 5.0 | 0.00 | 0.00 | 0.00 | 59 | 1010.3 |
| 20260506091538 | 68 | 174 | 0.0 | 0.0 | 0.00 | 0.00 | 0.00 | 59 | 1010.2 |
| 20260506090036 | 67 | 293 | 0.0 | 0.0 | 0.00 | 0.00 | 0.00 | 60 | 1010.2 |
| 20260506084534 | 67 | 222 | 0.0 | 3.0 | 0.00 | 0.00 | 0.00 | 60 | 1010.3 |
| 20260506083031 | 66 | 258 | 0.0 | 0.0 | 0.00 | 0.00 | 0.00 | 62 | 1010.3 |
| 20260506081533 | 65 | 277 | 0.0 | 0.0 | 0.00 | 0.00 | 0.00 | 64 | 1010.3 |
| 20260506073021 | 63 | 352 | 0.0 | 0.0 | 0.00 | 0.00 | 0.00 | 69 | 1010.4 |
| 20260506071523 | 62 | 352 | 0.0 | 0.0 | 0.00 | 0.00 | 0.00 | 74 | 1010.4 |
| 20260506061517 | 55 | 352 | 0.0 | 0.0 | 0.00 | 0.00 | 0.00 | 83 | 1010.1 |
| 20260506044503 | 0 | 0.0 | 0.0 | 0.00 | 0.00 | 0.00 | 1009.8 | ||
| 20260506043059 | 0 | 0.0 | 0.0 | 0.00 | 0.00 | 0.00 | 1009.7 | ||
| 20260506041558 | 53 | 171 | 0.0 | 0.0 | 0.00 | 0.00 | 0.00 | 84 | 1009.6 |